Вернуться в каталог

FENGYUN 1C DEB

АктивенPO
NORAD 43358·DEBRIS·🇨🇳 China

Запущен May 10, 1999 с Taiyuan Satellite Launch Center

Loading…

Ближайшие Пролёты (ближайшие 24 часа)

TLE

СвежийSource: Space-Track

Эпоха: Sep 14, 2026, 04:59 UTC

1 43358U 99025EYP 26257.20790229  .00001228  00000-0  15532-2 0  9992
2 43358  98.6929 344.0250 0363058 225.8267 131.2496 13.41018609574222

Отслеживайте FENGYUN 1C DEB в реальном времени с AllMySat

Download on the App Store